Location: Góry Miechowskie
(50.3599°N, 20.1803°E)
Time: 14:53:14
(UTC+00:00)

Vanguard 1 Rocket - Pass Details

Date: 20 September 2024
Orbit: 650 x 4218 km, 34.3° (Epoch: 07 October)

Event Time Altitude Azimuth Distance (km) Brightness Sun altitude
Rises 04:33:41 0° 261° (W) 6,066 10.9 0.9°
Reaches altitude 10° 04:37:14 10° 256° (WSW) 5,454 10.7 1.4°
Maximum altitude 04:54:07 47° 190° (S) 4,512 11.0 4.1°
Drops below altitude 10° 05:17:47 10° 127° (SE) 7,375 13.3 7.9°
Sets 05:23:42 0° 122° (ESE) 8,257 13.7 8.8°
